Wind_Speed
113 115 117 119 120 121 122 123 123 121 120 120 119 117 115 112 110 108 107 105 103 102 101 101 99 98 97 96 95 94 92 91 90 90 89 89 88 87 86 85 83 82 80 78 76 74 73 71 70 68 67 67 66 66 66 67 67 68 69 69 70 71 71 72 72 73 73 73 73 73 73 72 72 72 72 72 72 72 73 74 75 75 76 76 76 76
116 118 120 121 121 120 120 121 120 117 114 113 111 110 107 105 103 102 100 98 97 96 95 94 92 91 90 88 87 86 84 83 82 82 81 81 80 80 79 79 78 76 75 74 73 71 70 69 67 66 66 65 65 65 65 66 67 68 69 69 70 71 71 71 71 71 70 70 69 68 68 67 67 67 67 67 67 67 68 69 70 71 72 72 72 73
118 120 121 121 120 118 116 115 114 112 108 105 103 102 100 98 96 94 93 91 90 89 87 85 84 83 81 80 78 76 75 74 73 72 72 72 72 72 71 71 71 70 70 69 68 67 66 65 65 64 63 63 63 64 65 65 67 68 68 69 70 70 69 69 68 67 65 64 63 63 62 61 61 61 61 61 61 62 62 64 65 66 67 68 69 69
119 119 118 118 116 114 112 109 106 104 102 99 96 94 92 90 89 87 85 84 82 80 79 77 75 73 72 70 68 67 65 64 64 63 63 63 63 63 63 64 64 64 63 63 63 62 62 62 61 61 61 62 62 63 64 65 66 67 68 68 67 67 66 64 63 61 60 59 58 57 56 55 55 55 55 55 55 56 56 57 59 60 62 63 65 66
118 116 114 113 111 109 106 103 100 97 94 92 89 87 85 83 81 79 77 76 73 71 70 68 66 64 62 61 59 58 57 56 55 55 55 55 55 56 56 56 56 57 57 57 57 57 57 58 58 59 59 60 61 62 63 64 65 65 65 64 63 61 60 58 57 56 55 54 53 52 52 51 51 50 50 50 50 51 51 52 54 55 57 59 61 62
115 112 110 107 104 102 99 96 93 90 87 85 83 80 77 75 73 71 69 67 65 63 61 59 57 56 54 53 52 51 50 49 49 48 48 48 48 49 49 49 50 50 50 51 52 52 53 54 55 56 57 59 60 61 61 62 61 61 60 58 57 56 54 53 53 52 51 51 50 49 49 48 48 48 48 47 48 48 49 49 51 52 54 55 57 59
111 108 105 101 98 96 93 89 86 83 80 78 76 73 71 68 65 63 61 59 57 55 54 52 50 49 48 47 46 45 45 44 44 43 43 43 43 43 43 43 44 44 45 46 47 48 49 51 52 53 55 56 56 57 56 56 55 54 53 52 52 51 51 50 50 50 50 49 49 48 48 48 47 47 47 47 47 47 48 49 50 51 52 54 55 56
104 102 99 95 92 89 87 83 80 76 73 71 69 66 64 61 58 56 54 52 50 49 48 47 45 43 42 42 42 42 41 40 39 39 38 38 38 38 38 38 39 40 41 42 43 44 46 47 48 50 50 51 51 50 50 49 49 49 49 49 49 49 50 50 50 50 50 49 49 49 48 48 47 47 47 47 47 47 48 49 50 51 52 53 54 55
97 94 92 89 85 82 79 77 74 70 67 64 62 60 57 55 53 50 48 46 45 44 43 42 41 39 39 39 39 39 38 38 37 36 35 34 34 34 34 35 35 36 37 38 40 41 42 43 43 44 44 44 44 44 45 45 46 47 47 48 49 50 50 50 51 51 50 50 50 50 49 49 48 48 48 48 48 48 48 49 50 52 53 54 54 54
91 87 84 82 79 76 72 69 67 64 61 59 56 54 52 50 49 46 44 42 41 40 40 39 38 37 36 36 36 36 36 35 34 33 33 32 32 31 31 32 32 33 34 34 35 36 37 37 38 39 39 40 41 42 43 45 46 47 48 49 50 50 51 51 52 52 52 51 51 51 51 50 50 50 49 49 49 48 49 49 50 52 53 53 54 53
85 82 79 76 73 70 67 63 60 58 56 54 52 50 48 47 46 45 42 40 38 37 37 36 36 36 35 35 34 34 33 32 31 30 30 30 29 29 29 29 29 30 30 31 31 32 33 35 36 37 39 40 41 43 44 45 46 47 48 49 50 51 51 52 52 52 52 52 52 51 51 51 51 50 50 50 49 49 49 49 50 51 52 52 53 52
79 76 73 70 67 64 61 58 56 53 52 50 49 48 46 45 44 43 42 39 37 36 35 34 34 34 35 35 34 33 31 30 28 28 27 27 28 28 28 28 28 28 29 30 31 32 34 36 37 38 40 41 42 43 45 46 46 47 48 49 50 50 51 51 51 51 51 51 51 50 50 50 50 50 49 49 48 48 48 48 49 50 50 50 50 50
74 71 68 65 62 59 56 54 52 50 49 48 47 46 45 44 43 42 41 39 38 36 35 33 33 33 34 35 34 33 30 28 27 26 26 26 27 27 28 27 28 28 29 31 32 34 36 37 39 40 41 42 43 43 44 45 45 46 46 47 48 48 48 48 48 48 48 48 48 48 48 47 47 47 46 46 46 45 46 46 46 47 47 47 47 47
69 66 63 60 57 55 52 50 49 48 48 47 47 46 45 43 42 41 40 38 37 35 34 33 32 33 33 34 34 33 30 27 26 25 24 25 26 28 28 28 28 29 30 31 33 34 36 38 39 39 40 40 41 41 42 42 42 43 43 43 44 44 43 43 43 43 43 43 43 43 43 43 43 43 43 42 42 42 42 42 42 42 43 43 43 43
64 62 59 56 53 51 49 48 48 47 47 46 46 45 44 42 41 40 39 37 36 34 33 32 31 31 32 34 34 33 30 27 25 24 23 24 26 28 29 29 29 29 31 32 33 34 35 36 37 37 36 37 37 37 37 37 38 38 38 38 38 38 38 37 37 38 38 38 39 39 39 39 39 38 38 37 37 36 36 36 36 36 36 36 37 37
60 58 55 53 50 48 48 47 48 47 46 46 44 43 42 41 40 39 38 36 35 33 32 30 29 29 30 32 33 33 31 28 25 23 23 24 26 29 30 30 29 30 31 32 33 33 33 33 33 33 32 32 32 32 33 33 33 33 33 33 33 33 33 33 33 34 34 34 35 35 35 34 33 32 31 30 30 29 29 29 29 29 30 30 30 31
56 54 52 50 48 47 47 47 47 47 46 45 43 42 41 40 39 38 37 35 34 32 31 31 30 29 28 29 31 32 31 28 25 24 23 25 27 29 30 30 30 29 30 31 32 31 31 31 30 30 30 30 30 30 30 30 30 30 30 30 30 30 30 30 31 31 31 31 30 29 28 26 25 24 23 23 23 23 23 23 23 24 24 25 25 26
53 51 50 48 47 47 47 47 47 46 45 44 42 40 39 38 37 36 35 34 33 32 32 31 31 30 29 29 29 30 30 28 26 24 24 25 27 29 30 30 30 29 30 30 31 31 31 30 30 30 30 30 29 29 29 29 29 28 28 28 28 28 28 28 27 27 25 24 22 21 19 18 18 17 17 18 18 19 19 20 21 21 22 22 23 24
50 49 48 47 47 47 47 47 47 46 45 43 41 39 37 36 35 34 34 33 33 32 32 32 32 31 31 30 30 30 29 28 26 25 24 24 26 28 29 29 28 28 29 30 31 31 31 31 31 31 31 30 30 29 29 28 28 27 27 26 26 26 25 24 22 20 19 17 15 14 13 13 14 14 15 16 17 18 19 19 20 21 21 22 23 23
48 47 47 47 48 48 47 47 46 45 44 42 40 38 36 34 33 33 32 32 31 31 31 31 31 31 31 31 30 30 30 28 27 25 24 23 25 26 27 27 27 27 27 29 30 31 31 31 32 32 32 31 30 29 29 28 27 26 26 25 24 23 21 19 17 15 13 12 11 11 12 12 13 14 16 17 18 19 20 21 22 22 23 23 24 24
46 46 46 47 48 48 47 46 44 43 42 41 39 37 35 33 32 31 30 30 29 29 29 30 30 30 30 30 30 30 30 28 26 24 22 22 23 25 26 27 26 26 26 27 29 29 30 31 31 32 32 31 30 29 28 28 27 26 24 23 21 19 16 14 13 12 11 11 11 12 13 14 15 16 18 19 21 22 23 24 25 26 27 27 28 28
45 46 47 47 48 48 46 44 43 42 41 39 38 36 35 33 32 30 29 28 27 27 27 27 28 28 29 29 30 30 29 28 26 24 22 22 22 24 26 27 27 26 27 27 28 28 29 30 30 31 31 30 29 28 28 27 26 25 23 20 18 15 13 12 11 11 11 12 13 14 15 16 17 19 21 22 24 26 27 28 30 31 31 32 32 33
45 46 47 47 47 46 45 43 42 40 39 38 37 36 34 33 32 30 28 27 26 25 25 25 25 26 27 28 29 29 29 28 26 24 23 23 24 25 27 28 28 28 28 29 29 29 29 29 30 30 29 28 27 27 27 26 25 23 21 18 15 12 11 11 11 12 13 14 15 16 17 19 20 22 24 25 27 28 29 30 31 31 32 32 32 33
45 46 47 46 45 44 43 42 41 40 39 37 36 35 34 33 31 30 28 26 25 24 23 23 23 23 24 25 27 28 28 28 26 25 25 25 26 27 29 30 31 30 30 30 31 30 30 30 30 29 28 27 26 25 26 25 24 22 19 15 12 10 10 11 12 14 15 16 17 18 20 21 23 24 25 26 27 27 27 27 26 26 26 27 27 28
46 46 46 45 43 42 41 40 40 39 38 37 36 35 34 32 30 28 26 25 24 23 22 21 21 21 22 23 25 26 28 27 27 27 27 27 27 29 31 33 33 33 32 32 32 31 31 30 29 28 27 25 24 24 25 24 23 20 16 13 10 10 10 12 14 15 17 18 19 20 22 23 24 25 25 25 25 24 23 23 23 23 24 25 26 26
45 45 44 43 41 40 39 39 39 38 38 37 36 35 34 31 29 27 25 24 23 22 21 20 20 19 20 22 23 25 27 27 27 28 28 28 29 30 32 33 34 34 33 32 31 31 30 29 28 27 25 23 23 23 24 24 21 18 14 11 9 9 11 13 15 17 18 20 21 22 23 23 24 24 24 24 24 23 22 22 22 23 24 25 25 26
44 43 41 40 39 38 38 38 38 37 37 37 37 36 34 31 29 26 25 24 23 23 22 21 20 19 19 21 23 25 27 28 28 28 29 30 30 31 32 34 34 34 33 32 31 30 29 28 26 24 22 21 21 22 23 23 20 16 12 10 9 10 13 15 17 18 20 21 22 23 23 24 24 24 24 24 24 23 23 22 22 23 23 24 24 25
41 40 38 37 37 36 36 36 36 37 37 36 36 36 34 32 30 28 27 25 25 25 25 24 23 21 20 21 23 25 27 28 29 29 30 30 31 32 33 34 34 34 33 31 29 28 27 26 24 21 19 19 20 21 23 22 19 15 12 10 11 13 15 17 19 20 21 22 23 23 24 24 25 25 25 25 25 25 25 24 24 23 23 23 23 23
38 37 36 35 35 35 35 35 36 36 36 36 35 35 34 33 32 31 29 28 28 28 28 27 26 24 23 22 22 24 27 29 30 30 30 31 31 32 32 33 34 33 32 29 26 25 24 24 22 19 17 17 18 21 23 22 19 15 13 13 15 17 18 20 21 22 23 23 24 24 25 25 25 25 25 26 26 26 26 26 25 24 23 23 23 24
35 34 33 33 33 34 34 34 35 35 35 35 35 34 34 34 33 33 32 31 31 31 31 29 28 27 25 24 23 24 26 29 30 31 31 31 31 31 31 32 32 31 30 27 24 21 21 22 21 19 16 16 18 20 22 22 20 17 16 17 19 20 21 22 23 24 25 25 25 25 25 25 25 24 25 25 26 26 26 25 25 24 24 24 24 25
32 31 31 31 32 32 33 33 33 34 34 34 34 34 33 33 34 33 33 33 33 32 32 31 30 29 27 26 26 26 27 28 29 30 31 30 30 30 30 30 29 29 27 25 23 20 19 19 20 19 17 16 17 20 22 22 21 20 20 20 22 23 24 24 25 25 26 25 25 25 25 24 23 23 24 24 25 25 25 25 25 25 25 25 26 28
29 29 29 29 30 30 31 32 32 32 33 33 33 33 33 33 33 33 33 33 33 33 32 31 30 29 28 27 27 28 28 29 30 30 30 29 29 28 28 27 27 26 26 25 23 21 19 18 19 19 18 17 18 19 21 22 22 22 22 23 23 24 25 25 26 25 25 24 24 24 24 23 23 23 23 24 25 25 25 25 26 26 27 28 29 31
28 28 28 28 28 29 30 30 31 31 32 32 32 32 32 33 33 33 33 33 33 33 32 32 31 29 28 27 27 28 29 30 30 30 30 29 28 27 27 26 25 24 24 24 23 22 20 19 19 19 19 18 19 20 21 22 23 24 24 24 24 24 25 25 25 24 23 23 23 23 24 24 24 25 25 26 26 27 26 26 26 27 27 29 31 32
27 27 27 27 27 28 29 29 30 31 31 31 32 32 32 32 32 32 32 32 32 32 32 32 31 30 28 27 27 28 29 30 30 30 29 29 28 27 26 26 25 24 23 23 23 22 21 20 19 19 19 20 20 21 22 23 24 25 25 25 24 24 24 23 23 22 21 22 23 24 25 26 27 28 29 29 29 28 27 26 26 26 27 29 31 33
27 27 27 27 27 27 28 29 29 30 31 31 31 31 31 32 32 32 32 31 31 31 31 31 31 30 29 28 28 28 29 29 29 29 29 28 28 27 27 26 26 25 24 23 23 23 22 21 19 19 19 20 21 22 23 24 25 25 25 25 24 23 22 21 20 20 21 22 23 25 27 28 29 30 31 30 29 28 27 26 26 27 28 29 31 32
27 27 27 27 27 27 28 28 29 29 30 30 30 31 31 31 31 31 31 31 31 30 30 30 30 30 30 29 29 29 29 29 28 28 27 27 28 28 27 27 27 26 25 24 24 23 23 21 19 18 17 18 19 20 21 22 23 23 23 23 21 20 19 18 18 19 20 21 23 25 27 28 29 29 29 29 28 26 25 26 27 28 29 30 30 31
27 28 28 27 27 28 28 28 29 29 29 30 30 30 30 30 30 30 30 30 30 29 29 29 29 29 29 29 29 29 29 29 28 27 27 27 28 28 28 27 27 26 25 25 24 24 23 21 19 17 16 16 16 16 17 18 19 20 19 18 17 16 15 16 17 18 20 21 23 24 25 26 27 26 26 25 24 23 24 25 27 28 30 30 31 31
28 28 28 28 28 29 29 29 29 29 29 29 29 29 29 29 29 29 29 29 29 29 28 28 28 28 28 28 28 29 29 28 27 26 26 27 28 28 27 27 27 26 25 24 24 23 22 21 19 17 15 14 14 14 15 15 16 16 15 15 14 14 14 15 17 18 20 21 23 23 24 24 23 22 21 21 21 22 24 26 28 30 31 31 31 31
29 29 29 29 30 30 30 30 30 29 29 29 29 28 28 28 28 28 28 28 28 28 27 27 27 27 27 27 27 28 28 27 26 25 26 26 27 27 27 26 26 25 24 23 23 22 21 20 18 16 14 13 13 13 13 13 13 14 14 15 15 16 17 18 19 20 21 22 23 23 22 21 20 19 19 19 21 23 26 28 30 31 32 32 32 31
29 30 30 30 31 31 31 31 31 30 30 29 29 28 28 27 27 27 27 27 27 27 26 26 26 26 26 26 26 26 26 25 24 24 25 26 26 27 26 25 24 22 22 21 21 20 19 19 18 17 16 15 14 14 14 13 13 14 15 16 17 19 20 21 21 22 23 23 23 23 22 20 18 17 17 18 20 23 26 28 30 31 31 31 30 30
30 30 31 31 31 32 32 32 31 31 30 30 29 28 27 27 26 26 26 26 26 26 25 25 25 25 25 25 26 25 25 24 23 23 24 25 26 26 25 23 21 20 20 19 19 18 18 18 18 18 18 17 16 16 15 15 15 16 17 18 19 20 21 22 23 23 24 24 23 23 21 20 18 16 15 15 17 20 23 26 27 28 28 28 28 28
30 31 31 31 32 32 32 32 32 32 31 30 29 28 27 26 25 24 24 24 24 24 23 23 23 23 23 24 24 24 24 23 22 23 24 24 24 24 22 20 18 18 17 17 17 17 18 18 19 18 18 18 17 17 17 18 19 20 20 21 21 21 22 22 23 23 23 23 23 22 22 20 19 16 13 13 14 16 19 22 24 25 26 26 26 26
30 31 31 31 32 32 32 32 32 32 31 30 30 29 27 26 25 24 23 22 22 22 22 21 21 21 21 22 22 22 22 22 22 23 23 23 22 21 19 17 16 16 16 16 16 17 18 18 19 19 19 19 19 19 20 21 22 22 22 22 21 21 21 22 22 22 23 23 23 22 21 20 19 16 13 11 12 14 17 19 21 22 23 24 24 25
30 30 31 31 31 31 32 32 31 31 31 30 29 28 27 26 25 23 22 21 21 20 20 20 20 20 20 20 20 20 20 21 22 22 21 21 20 18 16 14 14 15 15 15 16 16 17 18 18 19 19 20 20 21 22 23 23 24 23 23 22 22 22 22 22 23 23 23 23 22 21 19 18 15 13 11 12 14 16 17 19 20 22 24 24 24
29 30 30 30 31 31 31 31 31 31 30 30 29 28 27 25 24 23 22 20 20 19 19 19 19 19 18 18 18 18 19 20 21 21 20 19 17 15 13 12 13 14 15 15 15 16 16 17 18 18 19 20 20 21 22 23 23 23 23 22 22 22 22 23 23 24 24 23 23 21 20 18 16 14 13 12 13 14 16 17 19 21 23 24 24 24
29 29 29 30 30 30 30 30 30 30 30 29 28 27 26 25 23 22 21 20 19 18 18 18 18 17 17 16 16 16 17 19 20 19 18 16 15 12 11 11 12 13 14 14 15 15 16 16 17 18 19 19 20 21 22 22 23 22 21 21 20 20 20 21 22 24 24 24 23 21 19 18 16 15 14 13 14 16 17 18 19 21 22 24 24 22
28 28 29 29 29 29 29 29 29 29 29 28 28 27 25 24 22 21 20 19 18 17 17 17 17 17 16 16 15 15 15 17 18 18 16 14 12 10 9 9 11 12 13 13 14 14 15 16 17 17 18 19 19 20 21 22 22 21 20 19 19 18 19 20 21 23 25 25 24 22 20 18 17 17 17 18 18 19 19 19 19 20 22 23 23 21
28 28 28 29 29 29 28 28 28 28 28 27 27 26 24 23 21 20 19 17 17 16 15 15 16 16 16 15 14 14 14 16 17 16 14 12 10 8 7 8 9 11 12 12 13 14 14 15 16 16 17 17 18 19 20 21 21 20 20 19 18 18 18 19 21 23 25 25 25 23 20 19 19 20 21 22 22 22 22 20 19 19 21 22 22 21
28 28 28 28 28 28 28 28 27 27 26 26 25 24 23 22 20 19 17 16 15 14 14 14 14 15 15 14 13 13 14 15 15 14 12 10 8 6 6 6 8 9 10 11 12 13 13 14 15 15 15 16 17 18 18 19 19 19 19 18 17 17 18 19 21 22 24 25 25 23 21 19 19 21 23 24 23 23 22 20 18 18 20 21 22 22
28 28 28 28 28 28 27 27 26 26 25 24 23 23 22 21 19 18 17 15 14 13 13 12 13 13 13 13 12 12 12 14 14 13 11 8 6 5 4 5 6 8 9 10 11 12 12 13 14 15 15 15 16 16 17 17 18 18 18 17 17 17 18 19 20 21 23 23 23 22 20 19 20 22 24 24 23 21 20 18 16 16 19 21 22 22
28 28 28 28 28 27 27 26 25 24 23 22 22 21 20 19 18 17 16 15 13 13 12 11 11 12 12 11 11 11 11 12 13 12 10 7 5 4 3 4 5 7 9 10 11 11 12 13 13 14 15 15 15 15 16 16 17 17 17 17 17 17 18 18 19 20 21 22 22 21 19 19 21 23 24 23 21 19 17 16 14 16 18 19 21 21
Wind_Direction
306 306 305 305 305 305 304 304 304 303 302 301 301 300 300 300 299 299 298 298 297 297 296 295 295 294 293 293 292 291 290 289 287 286 285 283 282 281 279 278 277 276 274 273 272 271 271 271 270 270 270 271 271 271 271 271 271 271 271 271 272 272 272 273 273 273 273 272 272 272 271 271 270 269 268 267 266 266 265 264 264 263 262 261 261 260
306 306 306 306 306 305 305 304 304 303 302 302 301 301 301 301 300 300 299 299 298 297 297 296 296 295 295 294 293 292 291 290 289 287 286 284 283 281 279 278 277 275 274 273 272 271 270 270 270 270 271 271 271 271 271 271 272 272 272 273 273 274 274 274 274 274 274 273 273 273 272 272 271 270 269 268 267 266 266 265 264 264 263 262 261 260
307 307 307 306 306 306 305 304 304 303 303 302 302 302 302 302 301 301 300 300 299 298 298 297 297 296 296 295 294 294 293 292 290 289 287 285 283 282 280 278 277 275 274 273 272 271 270 270 270 270 271 271 271 272 272 272 273 273 274 274 275 275 276 276 275 275 275 274 274 274 273 273 272 272 271 270 269 268 267 266 265 264 263 262 261 260
308 307 307 307 306 306 305 305 304 304 304 303 303 303 303 302 302 302 301 301 300 300 299 299 298 298 297 297 296 295 294 293 292 290 288 286 285 283 281 279 277 276 274 273 272 271 271 270 270 271 271 271 272 272 272 273 274 275 275 276 276 276 276 276 276 276 275 275 275 275 275 274 274 273 272 272 271 270 268 267 266 265 264 263 261 260
308 308 308 307 307 306 306 305 305 305 305 304 304 304 304 303 303 303 302 302 302 301 301 300 300 300 299 299 298 297 296 295 293 292 290 288 286 284 282 280 278 277 275 274 273 272 271 271 271 271 271 272 272 273 274 274 275 276 277 277 277 277 277 277 277 277 277 277 277 276 276 275 275 274 273 273 272 271 269 268 267 265 264 262 261 260
309 308 308 307 307 306 306 306 306 306 306 306 305 305 305 305 305 304 304 304 304 303 302 302 302 302 302 301 300 299 298 297 295 294 292 290 288 286 284 282 280 278 276 275 274 273 272 272 272 272 272 273 274 275 275 276 277 277 277 277 278 278 278 278 278 278 278 278 278 277 277 276 275 274 273 272 271 271 270 268 267 266 264 262 261 259
309 309 308 308 307 307 307 307 308 308 308 307 307 307 307 307 307 307 307 307 306 305 305 305 305 305 304 303 302 301 300 299 297 296 294 292 290 289 286 284 282 280 278 276 275 274 274 273 274 274 275 275 276 277 277 278 278 278 278 279 279 279 279 280 280 280 280 279 279 278 277 276 275 274 273 272 271 270 269 268 267 266 264 263 261 260
309 309 308 308 308 308 309 309 309 310 310 310 310 310 310 310 310 310 310 310 309 308 308 308 308 308 307 306 305 303 302 301 300 299 297 295 294 292 289 287 285 283 281 279 278 277 277 277 277 277 278 278 279 279 280 280 280 280 281 281 282 282 282 282 282 282 281 281 280 279 278 277 276 275 273 272 271 270 269 268 267 266 265 264 262 261
309 309 309 309 309 310 310 311 311 312 312 313 313 314 314 314 313 313 313 313 312 312 312 312 312 311 310 308 307 305 305 304 304 303 301 300 298 295 293 290 288 286 284 283 282 281 281 281 281 281 281 282 282 282 283 283 283 283 284 284 284 284 284 284 284 283 283 282 281 280 279 278 277 276 275 274 272 271 269 268 266 266 265 264 263 262
309 309 310 310 310 311 312 313 314 314 315 316 316 317 318 317 317 316 316 316 316 315 315 316 316 314 312 310 308 308 307 308 308 308 307 305 303 301 297 295 292 290 288 287 286 286 285 285 285 285 285 286 286 286 286 286 286 286 286 286 286 286 285 285 284 284 283 282 281 281 280 279 278 277 276 275 273 272 270 268 266 265 264 264 263 263
310 310 310 311 312 313 314 315 316 317 318 318 319 319 320 320 319 319 319 319 318 318 318 318 318 317 314 312 311 310 311 312 313 313 312 311 308 305 302 300 297 296 294 293 292 291 291 290 289 289 289 289 289 289 289 289 288 288 288 288 287 286 286 285 284 284 283 282 281 280 280 279 278 277 276 275 274 272 269 267 265 264 263 263 263 262
310 311 311 312 314 315 316 318 318 319 320 320 321 321 322 321 321 320 321 321 321 320 320 320 319 318 315 314 313 313 314 316 318 318 317 314 311 307 305 303 301 300 299 298 296 295 293 292 291 291 291 291 291 291 291 291 290 290 289 289 288 287 286 285 285 284 283 282 281 280 279 278 278 276 275 274 272 270 268 266 264 263 262 262 262 261
311 312 313 314 316 317 319 320 320 321 321 322 322 323 323 323 322 321 321 322 322 322 322 322 321 319 316 315 314 315 318 321 323 323 320 316 311 307 305 303 302 301 299 298 296 294 293 292 292 292 292 292 293 293 292 292 292 291 290 289 288 287 287 286 285 284 283 282 281 280 279 278 276 275 273 271 270 268 266 264 263 262 262 261 261 260
312 313 315 316 318 319 320 321 322 322 322 322 323 323 323 323 322 322 322 323 323 324 324 324 323 321 318 316 316 318 322 325 328 327 323 317 312 308 305 304 303 301 299 297 295 293 292 292 292 293 293 294 294 294 293 293 292 291 291 290 289 289 288 287 286 285 284 282 281 280 278 277 275 273 272 270 268 266 265 263 262 261 261 260 260 259
314 315 316 318 320 321 321 322 322 322 322 322 323 323 323 323 323 323 323 324 325 325 325 324 324 322 320 318 318 320 324 329 331 330 325 319 313 308 306 305 304 302 299 297 295 294 293 293 294 295 295 295 294 294 294 294 294 293 293 292 292 291 290 289 288 286 285 283 281 279 278 276 274 272 270 268 266 265 263 261 260 260 259 259 258 258
315 317 318 319 320 321 322 322 322 322 322 322 323 323 324 324 324 323 324 324 325 325 325 324 323 322 321 320 319 321 325 329 332 331 327 320 314 309 307 307 306 304 302 299 298 297 296 296 296 296 297 297 297 297 298 298 298 298 297 297 296 294 293 292 290 288 286 284 282 279 277 275 273 271 269 266 264 262 260 258 258 257 257 257 257 258
316 317 318 319 321 321 322 322 321 321 322 322 323 324 324 324 324 324 323 324 324 324 324 322 322 322 321 320 319 320 324 328 332 332 328 323 316 311 309 310 310 308 305 302 300 299 298 298 297 297 298 300 302 303 304 304 303 302 301 299 298 296 295 294 292 290 288 285 283 280 277 275 272 268 265 262 259 257 256 256 256 256 256 257 257 258
317 317 318 319 320 321 322 321 321 321 321 322 323 324 324 324 324 323 323 323 323 323 323 322 322 322 322 322 321 320 323 328 332 333 330 325 319 314 312 312 313 311 308 305 302 301 299 298 297 298 299 302 305 308 309 308 306 304 302 300 299 298 297 296 295 293 290 288 285 281 278 274 269 265 262 259 257 257 257 258 258 259 259 259 260 260
317 318 318 319 320 321 322 322 321 321 322 322 323 323 324 324 323 323 322 322 323 323 323 323 322 323 323 323 322 322 324 328 332 333 332 328 322 317 314 314 314 313 310 307 304 302 300 298 297 297 298 302 306 310 312 310 308 305 302 301 300 300 300 300 299 297 295 292 288 283 278 273 268 264 261 261 261 262 262 263 263 264 264 265 265 265
317 318 319 320 320 321 322 322 321 321 321 322 322 323 323 323 323 323 322 322 323 323 323 323 323 323 323 323 323 322 324 327 330 332 333 330 325 320 317 317 317 316 313 310 306 304 302 299 297 296 297 301 306 310 313 312 310 306 304 302 302 303 304 304 304 302 300 296 291 285 279 275 272 270 269 268 267 267 267 266 266 265 265 266 266 266
318 319 319 320 321 321 322 321 321 321 321 321 322 323 324 324 324 324 323 323 324 324 324 324 323 323 322 322 321 321 323 325 328 330 332 331 327 322 319 319 320 320 318 314 311 308 305 302 299 297 297 300 305 310 313 313 311 308 305 304 304 305 306 307 307 305 301 296 291 286 282 279 277 275 273 272 270 269 268 266 265 264 263 262 262 262
318 319 320 320 321 321 321 321 321 321 321 321 323 324 325 326 326 326 325 325 325 325 325 324 323 322 321 320 319 319 320 323 326 329 331 331 329 324 322 322 323 323 322 319 316 313 310 306 302 300 299 301 306 310 314 314 312 309 305 304 304 305 306 306 305 302 298 294 290 286 283 280 278 275 273 272 270 269 267 266 264 263 262 261 261 260
318 319 320 321 321 321 321 321 321 321 321 322 324 326 327 328 329 328 328 327 327 327 326 324 322 320 319 318 317 317 319 322 325 329 331 332 331 327 324 323 324 325 324 322 319 316 313 310 306 303 302 303 307 311 315 315 313 309 305 302 301 302 303 302 300 297 295 292 289 287 284 281 279 277 275 273 271 269 267 265 264 263 263 262 262 262
318 319 320 321 321 321 321 322 322 322 322 324 326 328 330 331 331 330 329 329 328 327 326 324 322 320 318 318 317 318 319 322 326 329 332 333 333 329 326 324 325 325 324 321 319 317 314 311 308 306 305 306 309 313 317 318 315 310 304 299 297 298 298 297 296 295 294 292 290 288 285 283 280 278 275 273 270 268 266 265 265 266 267 269 270 270
319 320 320 321 321 322 322 322 323 323 324 326 328 330 332 332 332 331 330 329 329 328 327 326 324 322 321 320 320 320 321 324 327 330 333 334 334 331 326 324 324 324 323 320 318 316 313 311 309 308 308 309 312 317 320 321 318 312 304 297 293 293 294 294 295 295 295 293 291 289 286 284 282 279 276 273 270 268 267 269 272 276 278 280 281 281
319 320 321 321 322 322 322 323 324 324 326 328 330 331 332 333 333 332 331 330 330 331 330 329 328 327 325 324 324 324 324 326 329 331 333 334 334 331 327 324 323 323 322 320 317 314 312 310 309 308 309 311 315 320 325 326 323 316 306 296 290 291 293 296 297 297 296 294 292 291 289 288 286 284 281 277 274 273 273 275 278 281 282 283 284 285
319 320 321 321 322 322 323 324 325 326 327 329 330 331 332 333 333 333 333 334 334 334 334 334 333 333 332 331 329 328 327 328 330 332 334 334 334 332 328 326 325 324 324 322 319 315 311 309 308 309 310 313 318 325 331 332 329 322 311 300 295 296 299 301 301 300 299 297 296 295 294 293 292 291 289 285 283 281 280 280 280 281 281 282 284 285
319 320 320 321 322 323 324 325 326 327 328 329 330 331 332 333 334 335 336 337 337 337 338 337 337 338 338 337 335 332 330 330 331 333 334 335 335 334 331 329 328 328 327 326 323 318 313 310 310 311 312 315 322 330 337 339 337 330 319 310 305 305 306 306 305 304 303 301 300 300 300 300 299 298 296 294 291 289 287 285 284 283 284 285 287 290
319 320 321 322 323 324 325 326 327 328 328 328 328 329 331 332 334 335 338 339 339 339 340 340 340 340 341 341 339 335 332 331 332 334 336 337 338 337 335 333 332 332 331 331 329 323 316 313 314 315 315 318 326 335 342 345 343 337 327 319 314 312 311 311 309 308 306 305 304 304 304 304 304 303 301 299 297 293 290 288 286 286 287 290 292 295
319 320 321 322 324 325 326 327 327 327 327 326 327 328 330 332 334 336 338 339 340 340 341 341 341 341 341 341 340 337 334 332 333 335 338 340 341 341 339 337 336 335 335 335 335 329 320 316 317 319 318 321 329 338 344 347 345 339 330 324 319 317 315 314 311 310 308 307 306 306 306 305 305 305 304 303 300 296 293 290 289 290 292 295 298 300
318 320 321 322 324 325 326 326 326 326 325 325 326 327 329 331 334 336 338 339 339 339 340 340 341 341 341 341 340 338 337 335 336 338 340 343 344 344 342 341 340 338 337 337 338 335 328 320 319 320 321 322 329 337 342 343 341 335 328 322 319 317 315 313 310 309 308 307 307 307 306 306 306 306 306 305 303 301 298 296 295 297 299 302 304 304
318 319 321 322 323 325 325 325 325 324 324 325 325 327 329 331 333 336 337 338 338 339 339 339 340 341 341 340 339 339 338 338 339 341 343 345 346 345 343 343 343 342 339 338 339 338 335 327 322 321 320 319 324 330 334 334 332 327 322 318 315 312 310 308 307 307 307 308 309 310 311 311 312 312 311 310 308 305 303 301 301 302 304 305 306 304
318 319 320 321 322 323 324 324 324 324 325 325 326 328 329 331 333 335 336 337 338 338 338 338 338 339 340 340 340 339 340 340 342 344 345 347 347 346 344 344 344 344 341 340 339 338 337 333 328 323 319 316 317 319 321 322 321 319 316 314 311 309 307 306 306 307 309 311 314 317 320 321 322 320 318 315 311 307 304 301 301 301 302 302 302 301
317 318 319 320 321 322 322 323 323 324 325 326 328 329 330 331 332 333 335 336 337 337 337 336 337 338 339 340 340 341 342 343 344 346 347 347 347 347 345 345 345 345 343 341 339 337 336 335 332 326 320 316 312 311 311 312 313 313 312 311 310 308 307 307 308 311 314 317 320 324 326 327 327 325 322 317 313 308 304 301 300 300 299 299 298 297
316 316 317 318 319 320 321 322 323 324 325 327 328 329 330 330 331 332 333 334 335 336 336 335 335 336 337 338 341 343 344 345 346 347 347 347 347 347 346 346 346 345 344 342 339 337 336 335 333 329 324 318 314 310 309 309 310 310 310 309 308 308 308 310 312 316 319 321 324 326 327 328 327 325 322 318 314 310 307 305 304 303 302 300 298 297
315 315 316 317 318 319 320 321 322 323 325 326 327 328 329 329 330 331 332 333 334 334 334 334 334 334 335 337 340 343 346 348 348 348 347 347 347 347 348 347 346 346 345 343 342 340 340 338 335 332 329 325 320 316 312 310 310 309 309 309 310 310 312 316 319 322 324 325 326 327 328 328 327 325 323 321 319 317 315 313 312 309 307 305 303 301
314 314 315 316 317 317 318 319 321 322 324 325 326 327 328 328 328 329 330 331 332 333 333 333 333 333 334 336 339 343 346 349 349 349 348 347 347 348 349 348 346 346 346 346 346 346 346 345 342 339 336 332 329 325 321 317 316 316 316 317 319 322 324 326 327 328 328 329 330 330 330 329 327 327 327 329 330 329 327 323 320 316 313 310 308 307
313 314 314 315 316 317 317 318 320 321 323 324 325 325 326 327 327 328 329 330 331 332 332 332 332 333 333 335 338 343 347 349 350 349 348 347 348 348 349 348 347 347 348 350 351 351 352 352 352 350 347 344 342 339 335 333 332 333 334 337 340 342 341 338 336 334 334 334 334 333 331 329 329 331 336 341 343 341 337 332 328 323 320 317 315 313
314 314 314 315 315 316 317 317 319 320 321 322 323 324 324 325 326 327 328 329 331 331 332 332 332 332 333 335 339 343 347 349 349 348 347 348 348 349 348 348 348 350 353 355 356 356 358 1 3 4 5 5 6 3 1 359 357 355 353 353 352 350 348 344 341 339 337 337 336 334 331 328 329 333 339 344 344 342 339 336 332 329 326 322 320 317
314 314 314 315 315 315 316 317 318 319 320 321 321 322 323 323 324 325 327 328 330 331 331 332 332 332 333 335 339 344 348 349 348 347 347 348 349 349 349 350 352 356 359 1 2 4 7 13 19 24 28 30 30 28 24 19 12 6 359 353 348 346 346 345 342 340 338 337 335 332 328 324 323 326 333 337 338 338 337 336 334 332 329 326 323 321
314 314 315 315 315 315 316 316 317 318 318 319 319 320 321 321 322 323 324 326 328 329 331 331 332 332 333 336 340 344 348 348 348 347 348 349 351 351 352 354 359 4 8 9 12 16 21 27 32 36 38 39 36 32 26 18 11 4 357 352 349 347 346 345 343 340 338 335 332 327 322 316 314 315 321 327 332 336 340 339 337 334 331 329 328 327
315 315 315 315 315 316 316 316 316 317 317 317 318 318 318 319 319 321 322 324 325 327 329 330 331 331 333 336 340 344 347 347 347 348 350 352 354 356 357 1 8 16 19 21 25 30 34 36 37 38 37 35 30 24 16 10 5 1 358 355 354 353 350 348 346 342 338 334 328 322 317 313 310 310 314 322 332 341 344 343 339 335 333 334 335 335
316 316 316 316 316 316 316 316 317 316 316 316 316 317 317 317 317 318 320 321 323 325 327 329 330 330 332 336 339 343 345 346 347 349 353 357 359 0 3 11 21 28 32 34 37 41 41 40 38 35 31 27 22 17 11 7 3 1 360 359 359 357 354 354 351 346 341 334 328 323 319 318 316 316 318 325 335 342 345 343 340 340 341 344 345 344
318 318 318 318 317 317 317 317 317 317 316 316 316 316 316 316 316 316 317 319 321 324 326 328 329 330 332 336 339 342 344 346 349 352 357 1 4 6 11 21 33 41 43 44 45 45 42 39 34 30 26 22 18 14 11 8 5 1 359 358 357 355 355 356 356 352 346 340 334 331 330 329 329 329 330 331 334 338 342 345 348 351 354 355 354 353
321 320 320 320 319 319 319 318 318 317 316 316 315 315 315 315 314 315 315 317 319 322 325 327 329 329 332 336 340 342 345 347 350 355 0 5 8 13 20 33 43 49 51 49 47 44 39 33 28 24 21 19 16 13 12 10 7 3 358 355 353 352 353 356 357 356 353 349 345 343 343 344 345 345 345 341 338 340 345 352 359 3 5 4 2 0
324 323 322 322 321 321 320 319 319 318 317 316 316 315 315 314 314 314 314 315 317 320 323 326 327 329 332 336 340 343 346 349 353 357 3 8 13 19 30 42 51 55 54 51 47 41 34 28 23 19 18 17 15 14 12 11 9 6 1 357 354 354 355 357 359 359 359 358 356 355 356 359 2 5 5 2 358 357 359 4 9 12 13 12 10 8
326 325 324 323 323 322 322 321 320 320 318 318 317 316 315 314 313 313 313 314 316 319 322 325 327 328 331 336 341 345 348 352 355 0 6 13 18 25 38 50 57 58 56 52 45 38 31 25 20 18 17 17 17 15 13 12 9 7 4 2 0 1 2 2 2 2 2 3 3 5 8 14 20 24 26 24 21 17 14 14 17 20 21 21 19 18
327 326 326 325 325 325 324 323 323 322 320 319 318 318 316 315 314 313 312 313 314 317 321 323 325 327 331 336 342 348 353 356 359 3 10 18 24 32 44 55 60 61 57 52 46 38 31 25 20 18 17 18 19 18 15 12 10 8 7 6 7 9 11 10 7 5 5 6 8 11 17 26 34 38 37 34 29 24 18 16 19 26 29 29 28 28
329 328 328 328 328 327 327 326 325 324 323 322 321 320 318 317 315 313 312 312 313 316 319 322 324 327 330 336 342 350 356 360 2 5 12 21 31 39 50 59 62 61 57 53 46 40 34 28 24 21 19 19 19 19 17 14 12 11 11 11 13 16 18 17 13 10 9 9 11 15 22 33 42 43 39 34 29 23 15 13 20 32 38 38 37 37
331 331 331 331 331 330 330 329 328 327 326 325 324 322 321 318 316 315 313 312 313 315 318 321 324 326 330 335 343 352 360 3 3 5 10 22 36 48 58 64 65 63 59 54 48 43 38 34 30 26 22 19 17 18 17 17 16 15 15 16 17 19 20 20 18 16 14 14 14 18 26 38 45 43 37 32 26 20 12 11 23 40 47 46 44 44
333 333 333 334 334 333 332 332 331 331 330 329 327 326 324 321 319 317 314 314 315 316 318 321 323 326 329 335 345 356 3 6 6 5 8 20 39 57 69 71 68 64 61 56 50 45 41 37 34 30 25 20 16 14 15 17 19 20 20 21 23 23 23 22 22 21 19 18 18 21 29 41 46 42 35 29 24 17 11 15 34 52 57 54 52 51
Height
5469 5464 5458 5453 5448 5444 5437 5428 5421 5416 5411 5404 5396 5389 5384 5380 5376 5370 5364 5359 5354 5348 5343 5338 5333 5329 5325 5322 5319 5316 5313 5310 5307 5304 5302 5301 5299 5299 5299 5299 5299 5300 5301 5302 5303 5304 5305 5306 5306 5307 5308 5308 5308 5308 5308 5308 5309 5309 5309 5309 5309 5309 5309 5309 5309 5308 5308 5307 5307 5307 5307 5307 5307 5307 5308 5308 5309 5309 5309 5309 5310 5310 5311 5312 5313 5314
5458 5452 5446 5440 5435 5432 5426 5418 5410 5403 5398 5392 5387 5380 5374 5370 5365 5360 5354 5349 5344 5339 5334 5329 5324 5319 5315 5312 5308 5305 5302 5299 5296 5294 5292 5291 5289 5289 5289 5289 5290 5291 5293 5294 5295 5296 5297 5298 5299 5300 5300 5301 5301 5301 5301 5301 5301 5301 5301 5301 5301 5301 5301 5301 5301 5300 5300 5300 5300 5299 5299 5299 5299 5299 5299 5300 5300 5301 5301 5301 5301 5301 5302 5303 5304 5305
5447 5442 5435 5427 5422 5418 5414 5408 5401 5394 5387 5381 5377 5371 5366 5361 5356 5351 5346 5341 5336 5330 5325 5320 5316 5311 5307 5303 5300 5296 5293 5290 5287 5285 5283 5281 5280 5280 5280 5281 5281 5283 5284 5286 5287 5288 5289 5291 5291 5292 5293 5294 5294 5294 5294 5294 5294 5294 5293 5293 5293 5293 5293 5293 5293 5292 5292 5292 5292 5292 5292 5291 5291 5291 5292 5292 5292 5293 5294 5293 5293 5293 5294 5295 5296 5297
5434 5430 5424 5417 5411 5406 5401 5396 5391 5386 5379 5373 5368 5363 5358 5353 5348 5343 5338 5333 5328 5323 5317 5313 5308 5304 5300 5296 5292 5289 5286 5282 5280 5277 5275 5274 5273 5272 5272 5273 5274 5276 5277 5278 5280 5281 5282 5284 5285 5286 5286 5287 5287 5287 5287 5287 5287 5287 5286 5286 5286 5286 5286 5286 5286 5286 5286 5286 5285 5285 5285 5285 5285 5285 5285 5285 5285 5286 5286 5286 5286 5286 5287 5288 5288 5290
5421 5417 5412 5407 5401 5396 5390 5385 5381 5376 5371 5366 5361 5356 5351 5346 5341 5336 5331 5326 5321 5316 5311 5306 5302 5298 5294 5290 5286 5283 5280 5276 5274 5271 5270 5268 5267 5267 5267 5268 5268 5270 5271 5273 5274 5275 5276 5278 5279 5280 5280 5280 5280 5280 5281 5281 5281 5280 5280 5280 5279 5279 5279 5279 5279 5279 5279 5279 5279 5279 5279 5279 5279 5279 5279 5279 5279 5279 5279 5280 5280 5280 5280 5281 5281 5282
5411 5406 5401 5396 5392 5386 5381 5377 5373 5368 5363 5358 5353 5349 5345 5340 5335 5330 5325 5320 5315 5310 5306 5301 5298 5294 5290 5285 5281 5278 5275 5272 5270 5268 5266 5265 5264 5263 5263 5264 5264 5265 5267 5268 5269 5270 5271 5272 5273 5274 5274 5274 5274 5275 5275 5275 5274 5274 5273 5273 5273 5273 5273 5273 5273 5273 5273 5273 5273 5273 5273 5274 5274 5274 5274 5274 5274 5274 5273 5273 5273 5274 5274 5274 5275 5276
5401 5396 5390 5386 5382 5378 5373 5369 5365 5361 5356 5351 5346 5341 5338 5334 5329 5325 5320 5315 5310 5305 5301 5298 5294 5291 5286 5282 5278 5275 5272 5269 5267 5265 5263 5262 5261 5261 5261 5261 5261 5262 5263 5264 5265 5266 5266 5267 5268 5269 5269 5269 5269 5269 5269 5268 5268 5268 5267 5267 5267 5266 5267 5267 5267 5267 5267 5267 5267 5267 5267 5267 5268 5268 5268 5268 5268 5268 5268 5267 5267 5267 5267 5268 5268 5269
5393 5388 5382 5377 5373 5370 5366 5361 5357 5354 5350 5344 5339 5335 5331 5328 5324 5321 5316 5311 5306 5301 5297 5294 5291 5288 5284 5280 5276 5273 5270 5267 5266 5264 5262 5261 5260 5260 5259 5259 5259 5259 5260 5261 5261 5262 5262 5263 5263 5263 5263 5263 5263 5263 5263 5263 5263 5262 5262 5261 5261 5261 5261 5261 5261 5261 5261 5261 5262 5262 5262 5262 5262 5261 5261 5261 5262 5262 5262 5261 5261 5261 5261 5261 5261 5262
5384 5381 5376 5371 5366 5363 5360 5356 5351 5347 5343 5338 5334 5330 5326 5322 5319 5316 5313 5309 5304 5299 5295 5292 5289 5286 5283 5279 5275 5271 5269 5266 5265 5263 5262 5261 5260 5259 5258 5258 5257 5257 5257 5258 5258 5258 5259 5259 5259 5259 5259 5258 5258 5258 5258 5258 5257 5257 5257 5256 5256 5256 5255 5255 5255 5255 5256 5256 5256 5256 5256 5256 5256 5256 5256 5256 5256 5256 5256 5256 5255 5255 5255 5255 5255 5256
5376 5372 5369 5365 5361 5357 5355 5351 5346 5341 5337 5333 5329 5326 5322 5318 5314 5312 5310 5307 5303 5298 5294 5290 5287 5284 5281 5278 5274 5271 5268 5266 5265 5263 5262 5261 5259 5258 5257 5256 5256 5256 5256 5256 5256 5256 5256 5256 5255 5255 5255 5254 5254 5254 5253 5253 5253 5252 5252 5251 5251 5250 5250 5250 5250 5250 5250 5250 5250 5250 5250 5250 5250 5250 5250 5250 5250 5250 5250 5250 5249 5249 5249 5249 5250 5250
5371 5366 5363 5360 5356 5353 5349 5345 5341 5337 5333 5330 5326 5323 5320 5316 5311 5308 5306 5304 5301 5297 5294 5290 5286 5283 5279 5276 5274 5271 5269 5267 5266 5264 5262 5261 5259 5257 5256 5255 5254 5254 5254 5254 5254 5253 5253 5252 5252 5251 5251 5251 5250 5250 5249 5249 5248 5247 5247 5246 5246 5245 5245 5244 5244 5244 5244 5244 5244 5244 5244 5244 5244 5244 5244 5244 5244 5244 5243 5243 5243 5243 5243 5244 5244 5244
5366 5362 5359 5356 5352 5348 5344 5341 5337 5334 5331 5327 5323 5320 5317 5314 5310 5306 5303 5300 5298 5295 5292 5289 5286 5282 5278 5274 5272 5271 5269 5268 5266 5265 5263 5261 5258 5256 5255 5254 5253 5253 5252 5252 5251 5251 5250 5249 5249 5248 5247 5247 5246 5246 5245 5245 5244 5243 5242 5241 5241 5240 5240 5239 5239 5238 5238 5238 5238 5238 5238 5238 5238 5238 5238 5238 5238 5238 5237 5238 5238 5238 5238 5238 5238 5239
5361 5358 5355 5352 5348 5344 5340 5337 5334 5331 5327 5324 5321 5317 5314 5311 5308 5304 5301 5298 5296 5293 5290 5287 5285 5281 5277 5273 5270 5269 5268 5268 5267 5265 5263 5261 5258 5256 5254 5253 5253 5252 5251 5251 5250 5249 5248 5246 5246 5245 5245 5244 5243 5242 5241 5241 5240 5239 5238 5237 5236 5236 5235 5234 5234 5233 5233 5232 5232 5232 5231 5231 5231 5231 5231 5231 5231 5232 5232 5232 5232 5232 5233 5233 5234 5234
5357 5353 5350 5346 5343 5340 5337 5334 5331 5328 5325 5321 5318 5315 5312 5309 5306 5302 5299 5296 5294 5291 5289 5286 5283 5280 5276 5272 5269 5267 5267 5267 5266 5265 5263 5260 5257 5255 5253 5252 5252 5252 5251 5250 5248 5247 5246 5245 5244 5243 5242 5241 5240 5239 5238 5237 5236 5235 5234 5233 5232 5231 5231 5230 5229 5228 5227 5227 5227 5226 5226 5226 5226 5226 5226 5226 5226 5227 5227 5227 5227 5227 5228 5229 5229 5230
5352 5348 5345 5342 5340 5337 5334 5331 5327 5325 5322 5319 5316 5313 5310 5306 5303 5300 5297 5295 5292 5290 5287 5285 5282 5279 5276 5271 5268 5266 5266 5266 5266 5265 5262 5260 5256 5254 5251 5251 5251 5251 5250 5248 5247 5246 5244 5243 5242 5241 5241 5239 5238 5237 5236 5235 5234 5232 5231 5230 5229 5228 5226 5226 5224 5224 5223 5222 5222 5221 5221 5221 5221 5221 5221 5222 5222 5222 5223 5223 5223 5224 5224 5225 5226 5226
5346 5344 5341 5339 5336 5334 5331 5328 5325 5322 5319 5316 5314 5311 5307 5304 5301 5298 5295 5293 5291 5288 5286 5284 5281 5279 5276 5272 5268 5265 5264 5265 5265 5263 5261 5259 5256 5253 5251 5250 5250 5249 5248 5247 5246 5244 5243 5242 5241 5240 5238 5237 5236 5235 5233 5232 5231 5230 5229 5227 5226 5224 5223 5222 5221 5220 5219 5218 5218 5217 5217 5217 5217 5218 5218 5218 5218 5219 5219 5220 5221 5221 5221 5222 5222 5222
5343 5340 5337 5335 5333 5331 5328 5326 5322 5319 5316 5314 5311 5308 5305 5302 5299 5296 5293 5291 5289 5286 5284 5282 5280 5278 5276 5273 5269 5266 5263 5263 5263 5262 5260 5258 5255 5252 5250 5249 5249 5248 5247 5246 5244 5243 5241 5240 5239 5238 5236 5235 5234 5233 5231 5230 5229 5227 5226 5225 5223 5222 5220 5219 5218 5217 5216 5215 5215 5214 5214 5215 5215 5215 5216 5216 5216 5217 5217 5218 5218 5218 5219 5219 5220 5220
5340 5337 5334 5332 5330 5328 5326 5323 5320 5316 5314 5311 5309 5306 5304 5301 5298 5295 5292 5289 5287 5285 5282 5280 5278 5276 5274 5271 5269 5266 5263 5262 5261 5260 5259 5257 5255 5252 5249 5248 5247 5247 5246 5244 5242 5241 5240 5238 5237 5236 5234 5233 5232 5230 5229 5228 5226 5225 5224 5222 5221 5220 5218 5217 5216 5215 5214 5213 5213 5212 5212 5212 5213 5213 5214 5215 5215 5215 5215 5216 5216 5216 5216 5216 5216 5216
5337 5334 5332 5329 5327 5325 5323 5320 5317 5314 5311 5309 5306 5304 5302 5300 5297 5294 5291 5288 5286 5283 5281 5278 5276 5274 5272 5269 5267 5264 5262 5261 5260 5259 5258 5256 5254 5251 5249 5247 5246 5246 5244 5242 5241 5239 5237 5236 5235 5233 5231 5230 5229 5228 5227 5226 5224 5223 5221 5220 5219 5217 5216 5215 5214 5213 5212 5212 5211 5211 5211 5212 5212 5212 5213 5213 5213 5213 5213 5213 5213 5213 5214 5214 5214 5214
5334 5332 5329 5326 5324 5322 5320 5317 5314 5311 5309 5306 5304 5302 5300 5298 5296 5293 5290 5287 5285 5282 5280 5277 5275 5272 5270 5267 5265 5263 5261 5260 5259 5258 5257 5255 5253 5250 5248 5246 5246 5244 5243 5241 5239 5237 5236 5234 5232 5231 5229 5228 5227 5226 5225 5223 5222 5221 5219 5218 5217 5216 5215 5214 5213 5212 5211 5211 5211 5211 5211 5211 5211 5211 5211 5211 5211 5211 5211 5211 5211 5211 5211 5211 5211 5211
5331 5329 5327 5324 5321 5319 5316 5314 5312 5309 5306 5304 5302 5300 5298 5296 5294 5291 5288 5286 5284 5281 5279 5276 5274 5271 5268 5266 5264 5261 5259 5258 5257 5257 5256 5255 5252 5250 5247 5246 5245 5243 5242 5240 5238 5236 5234 5232 5230 5228 5227 5226 5224 5223 5222 5221 5220 5219 5217 5216 5216 5215 5214 5213 5212 5211 5211 5211 5211 5210 5210 5210 5210 5210 5210 5210 5210 5209 5209 5209 5209 5208 5208 5208 5208 5207
5328 5326 5324 5322 5319 5316 5314 5312 5309 5307 5304 5302 5300 5298 5295 5293 5291 5289 5287 5285 5283 5281 5278 5276 5273 5271 5268 5265 5263 5261 5258 5257 5256 5256 5255 5254 5251 5249 5246 5245 5243 5242 5240 5238 5236 5234 5232 5230 5228 5226 5225 5224 5223 5221 5220 5219 5218 5217 5216 5215 5214 5213 5213 5212 5211 5211 5211 5210 5210 5210 5209 5209 5209 5208 5208 5208 5207 5207 5206 5206 5206 5205 5205 5205 5205 5204
5326 5324 5321 5319 5316 5314 5311 5309 5307 5305 5302 5300 5298 5295 5293 5291 5289 5287 5285 5283 5281 5280 5277 5275 5273 5270 5268 5265 5262 5260 5257 5256 5255 5254 5253 5252 5250 5247 5245 5243 5241 5240 5238 5236 5234 5232 5230 5228 5226 5224 5223 5222 5221 5220 5219 5217 5216 5215 5214 5213 5213 5212 5212 5211 5211 5210 5210 5210 5209 5209 5208 5208 5207 5206 5206 5206 5205 5204 5204 5203 5203 5202 5202 5202 5202 5201
5323 5321 5319 5316 5314 5311 5309 5307 5304 5301 5299 5297 5295 5293 5291 5289 5287 5285 5283 5281 5280 5278 5277 5275 5272 5270 5267 5265 5262 5259 5256 5254 5253 5252 5251 5250 5248 5246 5243 5241 5239 5238 5236 5235 5232 5230 5228 5226 5224 5222 5221 5220 5219 5218 5217 5216 5215 5214 5213 5212 5211 5211 5211 5211 5210 5210 5209 5208 5208 5207 5207 5206 5205 5205 5204 5203 5202 5202 5201 5201 5200 5200 5199 5199 5198 5198
5321 5318 5316 5314 5311 5309 5306 5304 5301 5299 5296 5295 5293 5291 5290 5287 5286 5284 5282 5280 5279 5277 5275 5273 5271 5269 5266 5264 5261 5258 5256 5253 5251 5250 5249 5248 5246 5244 5242 5239 5237 5236 5235 5233 5231 5228 5226 5224 5222 5221 5220 5219 5218 5217 5216 5214 5213 5212 5211 5211 5211 5210 5210 5210 5209 5209 5208 5207 5206 5206 5205 5204 5203 5202 5201 5201 5200 5199 5198 5197 5196 5196 5195 5194 5194 5193
5318 5316 5314 5311 5309 5307 5305 5302 5300 5297 5295 5292 5291 5289 5287 5286 5284 5283 5281 5279 5277 5276 5274 5272 5270 5268 5266 5263 5260 5257 5255 5252 5251 5249 5248 5246 5245 5243 5241 5238 5236 5234 5233 5231 5229 5226 5224 5223 5221 5220 5218 5217 5216 5216 5214 5213 5212 5211 5211 5210 5210 5209 5209 5209 5208 5207 5206 5206 5205 5204 5203 5201 5201 5200 5199 5198 5196 5196 5194 5193 5192 5191 5191 5190 5190 5189
5316 5314 5312 5310 5307 5306 5303 5301 5298 5296 5293 5291 5289 5287 5285 5284 5283 5281 5279 5277 5276 5274 5272 5270 5268 5267 5265 5262 5259 5256 5254 5251 5250 5249 5247 5246 5243 5241 5239 5237 5234 5232 5231 5230 5227 5225 5222 5221 5220 5219 5218 5216 5216 5214 5213 5212 5211 5210 5209 5209 5209 5208 5208 5207 5207 5206 5205 5204 5202 5201 5200 5199 5198 5197 5196 5195 5193 5192 5191 5190 5188 5187 5187 5186 5186 5186
5315 5312 5310 5308 5306 5304 5302 5300 5297 5295 5292 5290 5288 5286 5283 5282 5280 5279 5277 5275 5273 5271 5270 5268 5266 5265 5263 5261 5259 5256 5253 5251 5249 5248 5246 5244 5242 5240 5237 5235 5233 5231 5229 5228 5226 5224 5221 5219 5218 5218 5217 5216 5215 5214 5213 5211 5210 5209 5209 5208 5208 5207 5207 5206 5205 5204 5202 5201 5200 5199 5197 5196 5195 5194 5192 5191 5190 5189 5188 5186 5185 5184 5183 5182 5182 5181
5313 5311 5309 5307 5305 5303 5301 5298 5296 5294 5291 5289 5287 5285 5282 5280 5278 5276 5274 5273 5271 5269 5267 5266 5264 5263 5261 5260 5258 5256 5253 5251 5248 5247 5245 5243 5241 5238 5236 5233 5231 5229 5228 5226 5225 5223 5220 5218 5217 5217 5217 5216 5215 5213 5212 5211 5210 5209 5208 5208 5207 5206 5205 5204 5203 5201 5200 5199 5197 5196 5195 5193 5192 5191 5190 5188 5187 5186 5185 5184 5182 5181 5180 5180 5179 5178
5312 5310 5308 5306 5303 5301 5299 5297 5295 5293 5291 5289 5286 5284 5281 5278 5276 5274 5272 5270 5269 5267 5266 5264 5262 5261 5260 5259 5258 5256 5253 5251 5248 5246 5244 5242 5239 5237 5235 5232 5230 5228 5227 5225 5224 5223 5220 5218 5216 5216 5216 5216 5214 5213 5212 5211 5209 5208 5207 5206 5205 5204 5202 5201 5200 5199 5198 5196 5195 5193 5192 5191 5190 5188 5187 5186 5185 5183 5182 5181 5180 5178 5177 5176 5176 5175
5311 5309 5307 5305 5302 5300 5298 5296 5295 5293 5291 5288 5286 5283 5280 5278 5275 5273 5271 5269 5267 5266 5264 5263 5261 5260 5259 5257 5256 5255 5253 5251 5248 5246 5243 5241 5238 5236 5234 5232 5230 5228 5226 5225 5224 5222 5220 5218 5216 5216 5216 5215 5214 5213 5211 5210 5209 5207 5206 5205 5203 5201 5200 5199 5198 5197 5196 5194 5193 5191 5190 5189 5187 5186 5185 5183 5182 5181 5179 5178 5177 5176 5174 5173 5172 5171
5310 5308 5306 5304 5302 5300 5298 5296 5294 5292 5290 5287 5285 5282 5280 5277 5275 5272 5270 5268 5266 5265 5263 5262 5261 5260 5258 5257 5256 5254 5251 5249 5247 5245 5242 5240 5238 5236 5234 5232 5230 5227 5226 5224 5223 5221 5220 5218 5216 5215 5215 5214 5213 5212 5210 5209 5207 5206 5205 5203 5201 5200 5199 5198 5196 5195 5194 5192 5191 5190 5188 5186 5185 5183 5182 5181 5179 5178 5177 5176 5175 5173 5171 5170 5169 5168
5308 5306 5305 5303 5301 5299 5297 5295 5293 5291 5289 5286 5284 5282 5279 5277 5274 5272 5270 5268 5266 5264 5262 5261 5260 5259 5258 5257 5255 5253 5250 5248 5246 5243 5241 5240 5237 5235 5233 5231 5229 5227 5226 5224 5222 5221 5219 5217 5216 5214 5213 5213 5212 5211 5209 5208 5206 5205 5203 5202 5201 5199 5198 5196 5195 5194 5193 5191 5190 5188 5186 5185 5183 5181 5180 5178 5177 5176 5175 5174 5172 5171 5170 5168 5166 5165
5307 5305 5303 5302 5300 5298 5296 5294 5292 5290 5288 5286 5283 5281 5279 5276 5274 5272 5270 5268 5266 5264 5262 5260 5259 5257 5256 5256 5254 5252 5250 5247 5245 5242 5241 5239 5237 5235 5233 5231 5229 5227 5225 5223 5221 5219 5218 5216 5215 5213 5212 5211 5210 5210 5208 5207 5205 5204 5202 5201 5200 5198 5197 5196 5194 5193 5191 5190 5188 5186 5185 5183 5181 5180 5178 5177 5175 5174 5173 5172 5171 5169 5168 5166 5165 5163
5306 5304 5302 5301 5299 5297 5295 5293 5291 5289 5286 5284 5282 5280 5278 5276 5274 5271 5270 5268 5266 5264 5262 5260 5258 5256 5255 5254 5253 5251 5249 5247 5245 5242 5240 5239 5236 5234 5232 5230 5228 5226 5225 5222 5221 5219 5217 5215 5214 5212 5211 5210 5209 5208 5207 5206 5205 5203 5202 5201 5199 5198 5196 5195 5194 5192 5191 5189 5187 5186 5184 5182 5181 5179 5177 5176 5174 5172 5171 5170 5168 5166 5165 5163 5162 5160
5304 5302 5301 5299 5297 5296 5294 5292 5290 5288 5286 5283 5281 5279 5277 5275 5273 5271 5270 5267 5266 5264 5261 5259 5257 5256 5254 5253 5251 5250 5248 5246 5244 5242 5240 5238 5236 5234 5231 5229 5227 5226 5224 5222 5220 5218 5216 5214 5213 5211 5210 5209 5208 5206 5206 5205 5204 5203 5201 5200 5199 5197 5196 5194 5193 5191 5190 5188 5187 5185 5183 5182 5180 5178 5177 5175 5173 5171 5169 5168 5166 5164 5162 5160 5158 5157
5302 5301 5299 5297 5296 5294 5292 5291 5288 5286 5285 5282 5281 5279 5276 5275 5273 5271 5269 5267 5265 5263 5261 5259 5257 5255 5254 5252 5251 5249 5247 5246 5244 5241 5240 5238 5236 5234 5231 5229 5227 5226 5224 5221 5219 5217 5216 5214 5212 5211 5210 5208 5207 5206 5205 5204 5203 5202 5201 5199 5198 5196 5195 5194 5192 5191 5189 5187 5186 5184 5183 5181 5180 5178 5176 5174 5172 5171 5169 5167 5165 5162 5160 5157 5156 5154
5301 5299 5297 5296 5294 5292 5290 5289 5287 5285 5283 5281 5280 5278 5276 5274 5272 5271 5269 5267 5265 5263 5261 5259 5257 5255 5253 5252 5251 5249 5247 5245 5243 5241 5239 5237 5235 5233 5231 5229 5227 5225 5224 5222 5220 5217 5216 5213 5212 5210 5209 5208 5206 5206 5204 5203 5202 5201 5200 5198 5197 5196 5195 5193 5191 5190 5188 5187 5185 5184 5182 5181 5179 5177 5175 5173 5171 5170 5168 5166 5163 5161 5158 5156 5154 5151
5299 5297 5295 5293 5292 5290 5288 5286 5285 5283 5282 5280 5278 5277 5275 5273 5272 5270 5268 5266 5265 5263 5261 5259 5257 5255 5253 5251 5250 5248 5247 5245 5243 5241 5239 5237 5235 5233 5231 5229 5227 5225 5224 5222 5220 5218 5216 5214 5212 5210 5209 5207 5206 5205 5204 5203 5202 5201 5199 5198 5197 5195 5194 5192 5191 5189 5188 5186 5185 5183 5182 5180 5178 5176 5174 5172 5171 5169 5167 5165 5163 5161 5158 5155 5152 5150
5297 5296 5293 5291 5290 5288 5286 5285 5283 5281 5280 5278 5277 5275 5274 5272 5271 5269 5267 5265 5264 5262 5261 5259 5257 5255 5253 5251 5250 5248 5247 5245 5243 5241 5239 5236 5234 5233 5231 5229 5227 5225 5224 5222 5221 5219 5216 5214 5212 5211 5209 5208 5206 5206 5205 5203 5202 5201 5200 5198 5196 5195 5193 5192 5191 5189 5187 5186 5184 5182 5181 5179 5177 5175 5173 5171 5170 5168 5166 5165 5163 5161 5158 5155 5151 5147
5296 5293 5291 5290 5288 5286 5284 5282 5281 5279 5278 5276 5275 5274 5272 5271 5270 5268 5267 5265 5263 5261 5260 5258 5256 5255 5252 5251 5249 5247 5246 5245 5243 5241 5239 5236 5234 5232 5231 5230 5228 5226 5224 5223 5221 5219 5217 5215 5213 5211 5210 5208 5207 5206 5205 5204 5203 5202 5201 5199 5197 5195 5194 5192 5191 5189 5187 5186 5184 5182 5180 5178 5176 5174 5172 5171 5169 5168 5166 5165 5163 5160 5156 5153 5150 5146
5293 5291 5290 5288 5286 5284 5282 5280 5278 5277 5276 5274 5273 5272 5271 5270 5269 5267 5266 5264 5263 5261 5260 5258 5256 5255 5252 5251 5249 5247 5246 5245 5243 5241 5238 5236 5234 5233 5231 5230 5228 5227 5225 5224 5222 5220 5218 5216 5215 5213 5211 5210 5208 5207 5206 5205 5204 5202 5201 5199 5197 5196 5195 5193 5191 5189 5187 5186 5183 5181 5179 5177 5175 5173 5171 5169 5168 5166 5166 5164 5162 5159 5155 5152 5148 5146
5291 5290 5288 5286 5284 5282 5280 5278 5277 5275 5274 5272 5271 5270 5269 5268 5267 5266 5265 5263 5262 5261 5259 5258 5256 5254 5252 5250 5249 5247 5246 5245 5243 5241 5238 5236 5234 5233 5232 5231 5229 5227 5226 5225 5223 5221 5219 5218 5216 5214 5212 5211 5210 5208 5207 5205 5204 5203 5201 5200 5198 5196 5194 5192 5191 5190 5188 5185 5183 5181 5178 5176 5174 5172 5171 5169 5168 5166 5165 5163 5161 5158 5155 5151 5148 5145
5290 5288 5286 5284 5282 5280 5278 5277 5275 5273 5272 5270 5269 5268 5267 5266 5265 5264 5263 5261 5261 5259 5258 5257 5256 5254 5252 5250 5248 5247 5246 5244 5242 5240 5238 5236 5235 5233 5232 5231 5230 5228 5227 5226 5223 5221 5220 5218 5217 5215 5214 5213 5211 5209 5208 5206 5205 5203 5201 5200 5198 5196 5194 5192 5191 5189 5187 5185 5182 5180 5178 5176 5174 5172 5171 5169 5168 5166 5164 5162 5160 5157 5155 5152 5149 5146
5288 5286 5284 5282 5281 5279 5277 5275 5273 5271 5270 5268 5267 5266 5265 5264 5263 5262 5261 5260 5259 5258 5257 5256 5255 5253 5251 5249 5248 5246 5245 5244 5242 5240 5238 5236 5235 5234 5233 5232 5230 5229 5227 5226 5225 5223 5221 5219 5217 5216 5215 5214 5212 5211 5209 5207 5205 5204 5202 5200 5199 5197 5195 5193 5191 5189 5187 5184 5182 5180 5178 5176 5174 5172 5170 5169 5168 5166 5165 5163 5161 5158 5155 5152 5150 5147
5286 5284 5282 5281 5279 5277 5275 5273 5271 5270 5268 5266 5265 5264 5263 5262 5261 5260 5259 5258 5257 5256 5256 5255 5253 5252 5251 5249 5248 5246 5245 5243 5241 5240 5238 5236 5235 5235 5234 5232 5231 5229 5228 5226 5225 5224 5222 5221 5219 5217 5216 5214 5213 5211 5209 5208 5206 5204 5203 5201 5199 5198 5196 5194 5192 5190 5187 5185 5182 5180 5178 5176 5174 5172 5171 5169 5168 5167 5166 5164 5162 5159 5156 5154 5151 5149
5285 5283 5281 5279 5277 5275 5273 5272 5270 5268 5266 5264 5263 5262 5261 5260 5259 5259 5258 5257 5256 5255 5254 5253 5252 5251 5250 5248 5247 5246 5244 5242 5241 5239 5238 5236 5236 5235 5234 5233 5231 5230 5228 5227 5226 5224 5223 5221 5220 5218 5217 5215 5213 5211 5210 5209 5207 5205 5203 5201 5200 5198 5196 5194 5193 5191 5188 5186 5183 5181 5179 5176 5175 5173 5172 5171 5170 5168 5167 5165 5163 5161 5159 5156 5154 5151
5283 5281 5280 5278 5276 5274 5272 5270 5268 5266 5265 5263 5261 5260 5259 5259 5258 5257 5256 5255 5255 5254 5253 5252 5251 5249 5248 5247 5246 5245 5244 5242 5241 5239 5237 5236 5236 5235 5234 5233 5231 5230 5228 5227 5226 5225 5223 5222 5221 5219 5218 5216 5214 5212 5211 5209 5208 5206 5204 5202 5201 5199 5197 5195 5193 5191 5190 5187 5185 5182 5180 5178 5176 5175 5173 5172 5171 5169 5168 5166 5164 5162 5161 5159 5156 5154
5282 5280 5278 5276 5274 5272 5271 5269 5267 5265 5263 5261 5260 5259 5258 5257 5256 5255 5254 5254 5253 5252 5251 5250 5249 5248 5247 5246 5246 5244 5243 5242 5240 5239 5237 5236 5236 5235 5234 5233 5232 5231 5229 5227 5226 5225 5224 5222 5221 5220 5218 5216 5215 5213 5211 5210 5208 5207 5205 5203 5201 5199 5198 5196 5194 5193 5191 5189 5186 5184 5182 5180 5178 5177 5176 5174 5172 5170 5169 5167 5166 5164 5163 5162 5160 5158
5281 5279 5277 5275 5273 5271 5269 5267 5266 5264 5262 5261 5259 5258 5256 5255 5254 5253 5253 5252 5251 5251 5250 5249 5248 5247 5246 5245 5244 5243 5242 5241 5240 5238 5237 5236 5235 5235 5234 5233 5232 5231 5229 5228 5226 5225 5224 5223 5221 5221 5219 5217 5216 5214 5212 5211 5209 5207 5206 5204 5202 5201 5199 5197 5196 5194 5192 5190 5188 5185 5183 5181 5180 5179 5177 5175 5174 5172 5171 5169 5168 5167 5166 5165 5163 5161
5279 5277 5276 5274 5272 5270 5268 5266 5265 5263 5261 5260 5258 5257 5255 5254 5253 5252 5251 5251 5250 5249 5249 5248 5247 5246 5246 5245 5244 5243 5242 5241 5239 5238 5237 5236 5235 5235 5234 5233 5232 5231 5229 5227 5226 5225 5224 5223 5221 5220 5219 5218 5217 5216 5214 5212 5210 5208 5206 5205 5203 5201 5200 5198 5197 5195 5194 5192 5190 5187 5185 5183 5181 5180 5179 5177 5176 5174 5172 5170 5169 5169 5168 5168 5166 5165